"2016-06-17 00:00:00",1729371,6.441,97.6,2.336,0.546,25.64,111.3473,28.36,29.46,13.19,0,111.5,12.97,29.21,59.6
"2016-06-17 00:00:30",1729372,6.774,96.2,2.326,0.161,25.63,111.34,28.34,29.44,13.56,0,111.5,12.97,29.19,58.2
"2016-06-17 00:01:00",1729373,6.79,97.7,4.205,0.189,25.65,111.3392,28.34,29.42,13.71,0,111.5,12.97,29.19,59.7
"2016-06-17 00:01:30",1729374,7.479,100,2.762,0.426,25.65,111.3389,28.34,29.41,13.56,0,111.5,12.97,29.19,62.0
"2016-06-17 00:02:00",1729375,7.731,102.7,1.745,0.284,25.68,111.3277,28.31,29.4,13.56,0,111.5,12.97,29.16,64.7
"2016-06-17 00:02:30",1729376,7.535,101,1.828,0.269,25.72,111.3117,28.27,29.38,13.58,0,111.5,12.97,29.12,63.0
"2016-06-17 00:03:00",1729377,7.427,103.4,1.612,0.22,25.7,111.3055,28.25,29.36,13.56,0,111.5,12.97,29.10,65.4
"2016-06-17 00:03:30",1729378,7.524,102,2.071,0.206,25.79,111.3055,28.25,29.35,13.47,0,111.5,12.97,29.10,64.0
"2016-06-17 00:04:00",1729379,7.117,99.9,1.103,0.218,25.82,111.2999,28.24,29.34,13.55,0,111.5,12.97,29.09,61.9
"2016-06-17 00:04:30",1729380,7.167,97.8,1.603,0.302,25.74,111.2853,28.2,29.31,13.68,0,111.5,12.97,29.05,59.8
"2016-06-17 00:05:00",1729381,7.412,94.7,2.267,0.21,25.83,111.2749,28.17,29.29,13.91,0,111.5,12.97,29.02,56.7
"2016-06-17 00:05:30",1729382,7.597,99.8,2.466,0.237,25.78,111.2719,28.16,29.27,13.85,0,111.5,12.96,29.01,61.8
"2016-06-17 00:06:00",1729383,7.914,96.3,3.869,0.198,25.88,111.2719,28.16,29.26,13.85,0,111.5,12.96,29.01,58.3
"2016-06-17 00:06:30",1729384,6.845,98.5,2.963,0.404,25.79,111.2719,28.16,29.25,13.96,0,111.5,12.97,29.01,60.5
"2016-06-17 00:07:00",1729385,7.089,92.7,1.891,0.372,25.8,111.2616,28.14,29.23,14.16,0,111.5,12.97,28.99,54.7
"2016-06-17 00:07:30",1729386,6.678,98.9,2.526,0.602,25.81,111.2512,28.11,29.23,13.95,0,111.5,12.97,28.96,60.9
"2016-06-17 00:08:00",1729387,6.783,103.6,2.307,0.686,25.73,111.2468,28.1,29.2,13.95,0,111.5,12.96,28.95,65.6
"2016-06-17 00:08:30",1729388,7.391,106.5,1.671,0.246,25.77,111.2421,28.09,29.2,13.74,0,111.5,12.96,28.94,68.5
"2016-06-17 00:09:00",1729389,7.056,105,1.049,0.144,25.75,111.2423,28.09,29.18,13.49,0,111.5,12.96,28.94,67.0
"2016-06-17 00:09:30",1729390,6.485,104.6,1.648,0.425,25.75,111.2417,28.09,29.17,13.42,0,111.5,12.96,28.94,66.6
"2016-06-17 00:10:00",1729391,6.673,98,2.428,0.297,25.77,111.2413,28.09,29.17,13.47,0,111.5,12.96,28.94,60.0
"2016-06-17 00:10:30",1729392,7.722,95.4,1.318,0.263,25.84,111.2435,28.09,29.15,13.44,0,111.5,12.96,28.94,57.4
"2016-06-17 00:11:00",1729393,8.39,96.9,1.95,0.252,25.78,111.2429,28.09,29.13,13.34,0,111.5,12.96,28.94,58.9
"2016-06-17 00:11:30",1729394,8.23,98.5,2.808,0.376,25.85,111.2368,28.07,29.14,13.48,0,111.5,12.96,28.92,60.5
"2016-06-17 00:12:00",1729395,8.09,98.5,1.31,0.119,25.89,111.2353,28.07,29.14,13.38,0,111.5,12.96,28.92,60.5
"2016-06-17 00:12:30",1729396,8.08,100.5,1.683,0.232,25.93,111.2254,28.04,29.12,13.27,0,111.5,12.96,28.89,62.5
"2016-06-17 00:13:00",1729397,7.893,97.1,2.13,0.165,25.93,111.2202,28.03,29.11,13.26,0,111.5,12.96,28.88,59.1
"2016-06-17 00:13:30",1729398,7.709,96.9,1.945,0.303,25.92,111.2177,28.02,29.09,13.25,0,111.5,12.96,28.87,58.9
"2016-06-17 00:14:00",1729399,7.851,94.1,1.985,0.23,25.85,111.2164,28.02,29.09,13.28,0,111.5,12.97,28.87,56.1
"2016-06-17 00:14:30",1729400,7.269,96.1,2.093,0.123,25.84,111.2134,28.01,29.09,13.39,0,111.5,12.97,28.86,58.1
"2016-06-17 00:15:00",1729401,6.976,102.3,2.396,0.278,25.85,111.2155,28.02,29.07,13.23,0,111.5,12.97,28.87,64.3
"2016-06-17 00:15:30",1729402,6.884,98.6,2.057,0.225,25.86,111.2161,28.02,29.07,13.19,0,111.5,12.97,28.87,60.6
"2016-06-17 00:16:00",1729403,7.135,102,1.377,0.191,25.83,111.2211,28.03,29.07,13.38,0,111.5,12.97,28.88,64.0
"2016-06-17 00:16:30",1729404,7.126,105.7,2.422,0.305,25.79,111.2233,28.04,29.06,13.58,0,111.5,12.97,28.89,67.7
"2016-06-17 00:17:00",1729405,6.993,106.4,1.634,0.318,25.83,111.227,28.05,29.05,13.26,0,111.5,12.97,28.90,68.4
"2016-06-17 00:17:30",1729406,6.684,105,4.062,0.314,25.8,111.2267,28.05,29.05,13.19,0,111.5,12.97,28.90,67.0
"2016-06-17 00:18:00",1729407,6.527,98.1,2.47,0.254,25.78,111.2283,28.05,29.06,13.2,0,111.5,12.97,28.90,60.1
"2016-06-17 00:18:30",1729408,6.163,103.9,4.948,0.415,25.73,111.2298,28.06,29.05,13.28,0,111.5,12.97,28.91,65.9
"2016-06-17 00:19:00",1729409,6.735,105.2,1.537,0.43,25.78,111.2289,28.05,29.04,13.15,0,111.5,12.97,28.90,67.2
"2016-06-17 00:19:30",1729410,6.461,108.4,1.731,0.17,25.79,111.2317,28.06,29.05,12.99,0,111.5,12.97,28.91,70.4
"2016-06-17 00:20:00",1729411,6.748,107.6,1.66,0.234,25.83,111.2314,28.06,29.04,12.5,0,111.5,12.97,28.91,69.6
"2016-06-17 00:20:30",1729412,6.858,97.1,4.718,0.571,25.89,111.2317,28.06,29.05,13.17,0,111.5,12.97,28.91,59.1
"2016-06-17 00:21:00",1729413,6.021,101.4,3.78,0.201,25.71,111.2314,28.06,29.04,13.39,0,111.5,12.97,28.91,63.4
"2016-06-17 00:21:30",1729414,6.635,106.3,1.153,0.23,25.77,111.2323,28.06,29.04,13.15,0,111.5,12.97,28.91,68.3
"2016-06-17 00:22:00",1729415,6.551,105.5,1.424,0.227,25.77,111.2333,28.06,29.04,12.94,0,111.5,12.97,28.91,67.5
"2016-06-17 00:22:30",1729416,6.569,103,2.496,0.118,25.73,111.2326,28.06,29.04,12.95,0,111.5,12.97,28.91,65.0
"2016-06-17 00:23:00",1729417,6.344,100.3,1.274,0.291,25.8,111.2333,28.06,29.05,12.81,0,111.5,12.97,28.91,62.3
"2016-06-17 00:23:30",1729418,5.9,97.8,1.966,0.221,25.74,111.2329,28.06,29.04,13.11,0,111.5,12.97,28.91,59.8
"2016-06-17 00:24:00",1729419,5.726,97.8,2.286,0.278,25.83,111.2336,28.07,29.05,12.84,0,111.5,12.97,28.92,59.8
"2016-06-17 00:24:30",1729420,5.836,96.8,1.887,0.294,25.8,111.2342,28.07,29.05,12.7,0,111.5,12.97,28.92,58.8
"2016-06-17 00:25:00",1729421,6.346,105.1,4.824,0.196,25.81,111.2339,28.07,29.05,12.75,0,111.5,12.97,28.92,67.1
"2016-06-17 00:25:30",1729422,6.026,112,2.506,0.191,25.8,111.2373,28.08,29.06,12.1,0,111.5,12.96,28.93,74.0
"2016-06-17 00:26:00",1729423,5.986,108.8,1.639,0.149,25.79,111.2427,28.09,29.07,12.22,0,111.5,12.96,28.94,70.8
"2016-06-17 00:26:30",1729424,6.09,105.6,1.98,0.116,25.86,111.2459,28.1,29.06,11.95,0,111.5,12.96,28.95,67.6
"2016-06-17 00:27:00",1729425,5.705,100.3,1.365,0.139,25.86,111.2482,28.1,29.07,11.72,0,111.5,12.96,28.95,62.3
"2016-06-17 00:27:30",1729426,6.043,104.8,2.625,0.41,25.85,111.2511,28.11,29.07,11.73,0,111.5,12.96,28.96,66.8
"2016-06-17 00:28:00",1729427,6.1,102.9,2.972,0.355,25.86,111.2594,28.13,29.07,11.76,0,111.5,12.96,28.98,64.9
"2016-06-17 00:28:30",1729428,6.329,110.4,4.911,0.161,25.84,111.2703,28.16,29.08,11.77,0,111.5,12.96,29.01,72.4
"2016-06-17 00:29:00",1729429,6.272,108.2,3.385,0.293,25.81,111.2751,28.17,29.1,11.85,0,111.5,12.96,29.02,70.2
"2016-06-17 00:29:30",1729430,6.441,110.4,3.117,0.312,25.86,111.2754,28.17,29.1,11.84,0,111.5,12.96,29.02,72.4
"2016-06-17 00:30:00",1729431,6.21,102.8,3.939,0.253,25.83,111.2757,28.17,29.13,12.05,0,111.5,12.96,29.02,64.8
"2016-06-17 00:30:30",1729432,6.015,104.7,2.563,0.238,25.86,111.2757,28.17,29.12,11.92,0,111.5,12.96,29.02,66.7
"2016-06-17 00:31:00",1729433,5.808,105,3.18,0.314,25.79,111.2757,28.17,29.13,12.22,0,111.5,12.97,29.02,67.0
"2016-06-17 00:31:30",1729434,5.597,107.7,5.118,0.43,25.8,111.2757,28.17,29.14,11.89,0,111.5,12.97,29.02,69.7
"2016-06-17 00:32:00",1729435,5.204,109.2,1.903,0.387,25.79,111.2757,28.17,29.14,11.82,0,111.5,12.97,29.02,71.2
"2016-06-17 00:32:30",1729436,5.602,103.5,2.673,0.125,25.83,111.2776,28.18,29.14,11.73,0,111.5,12.98,29.03,65.5
"2016-06-17 00:33:00",1729437,5.791,101.2,1.448,0.197,25.81,111.2818,28.19,29.16,12.08,0,111.5,12.98,29.04,63.2
"2016-06-17 00:33:30",1729438,6.011,101.2,0.753,0.114,25.79,111.2846,28.2,29.17,12.3,0,111.5,12.98,29.05,63.2
"2016-06-17 00:34:00",1729439,5.858,101.4,0.849,0.143,25.81,111.2877,28.2,29.17,11.96,0,111.5,12.98,29.06,63.4
"2016-06-17 00:34:30",1729440,5.644,103,1.125,0.131,25.79,111.286,28.2,29.18,11.74,0,111.5,12.98,29.05,65.0
"2016-06-17 00:35:00",1729441,5.983,102.6,1.017,0.104,25.81,111.29,28.21,29.19,11.69,0,111.5,12.98,29.06,64.6
"2016-06-17 00:35:30",1729442,5.865,105.8,1.591,0.086,25.83,111.2931,28.22,29.19,11.64,0,111.5,12.98,29.07,67.8
"2016-06-17 00:36:00",1729443,6.118,108.6,1.182,0.099,25.85,111.2961,28.23,29.2,11.57,0,111.5,12.98,29.08,70.6
"2016-06-17 00:36:30",1729444,5.751,105.1,1.424,0.106,25.88,111.2992,28.23,29.19,11.45,0,111.5,12.98,29.08,67.1
"2016-06-17 00:37:00",1729445,5.657,108,1.787,0.217,25.81,111.3068,28.25,29.2,11.49,0,111.5,12.98,29.10,70.0
"2016-06-17 00:37:30",1729446,6.179,107.3,1.465,0.239,25.8,111.3074,28.26,29.21,11.6,0,111.5,12.98,29.11,69.3
"2016-06-17 00:38:00",1729447,5.668,103.6,3.106,0.106,25.81,111.309,28.26,29.21,11.72,0,111.5,12.98,29.11,65.6
"2016-06-17 00:38:30",1729448,5.42,104,1.227,0.088,25.8,111.3088,28.26,29.22,11.75,0,111.5,12.98,29.11,66.0
"2016-06-17 00:39:00",1729449,5.237,102.6,1.124,0.1,25.78,111.3093,28.26,29.22,11.75,0,111.5,12.98,29.11,64.6
"2016-06-17 00:39:30",1729450,5.349,98.6,0.76,0.107,25.82,111.3093,28.26,29.23,11.73,0,111.5,12.98,29.11,60.6
"2016-06-17 00:40:00",1729451,5.46,98.5,1.352,0.137,25.86,111.3093,28.26,29.23,11.69,0,111.5,12.98,29.11,60.5
"2016-06-17 00:40:30",1729452,5.56,98,2.583,0.19,25.83,111.3093,28.26,29.24,11.64,0,111.5,12.98,29.11,60.0
"2016-06-17 00:41:00",1729453,4.858,103,1.827,0.208,25.83,111.3093,28.26,29.24,11.57,0,111.5,12.98,29.11,65.0
"2016-06-17 00:41:30",1729454,5.002,100.3,3.882,0.321,25.81,111.3093,28.26,29.25,11.51,0,111.5,12.98,29.11,62.3
"2016-06-17 00:42:00",1729455,5.534,113.6,1.737,0.276,25.87,111.3093,28.26,29.24,11.21,0,111.5,12.98,29.11,75.6
"2016-06-17 00:42:30",1729456,5.694,109.3,3.152,0.255,25.88,111.3093,28.26,29.24,11.14,0,111.5,12.98,29.11,71.3
"2016-06-17 00:43:00",1729457,5.641,96.5,2.621,0.21,25.87,111.3093,28.26,29.26,11.35,0,111.5,12.97,29.11,58.5
"2016-06-17 00:43:30",1729458,5.311,100.7,4.482,0.346,25.9,111.3093,28.26,29.26,11.39,0,111.5,12.97,29.11,62.7
"2016-06-17 00:44:00",1729459,4.853,103.6,2.412,0.171,25.88,111.3093,28.26,29.24,11.21,0,111.5,12.97,29.11,65.6
"2016-06-17 00:44:30",1729460,4.651,99.8,4.252,0.171,25.86,111.3093,28.26,29.25,11.33,0,111.5,12.97,29.11,61.8
"2016-06-17 00:45:00",1729461,5.107,98,1.625,0.112,25.77,111.3093,28.26,29.26,11.55,0,111.5,12.97,29.11,60.0
"2016-06-17 00:45:30",1729462,5.02,102.6,3.428,0.195,25.76,111.3093,28.26,29.26,11.6,0,111.5,12.96,29.11,64.6
"2016-06-17 00:46:00",1729463,5.289,93.7,1.368,0.088,25.81,111.3093,28.26,29.27,11.83,0,111.5,12.96,29.11,55.7
"2016-06-17 00:46:30",1729464,5.218,91.3,0.955,0.213,25.85,111.3093,28.26,29.28,11.98,0,111.5,12.97,29.11,53.3
"2016-06-17 00:47:00",1729465,5.451,90.8,2.3,0.24,25.88,111.3093,28.26,29.29,12.14,0,111.5,12.97,29.11,52.8
"2016-06-17 00:47:30",1729466,5.425,87.4,1.425,0.146,25.84,111.3116,28.27,29.29,12.54,0,111.5,12.97,29.12,49.4
"2016-06-17 00:48:00",1729467,5.86,88.5,3.329,0.297,25.84,111.3155,28.28,29.29,12.93,0,111.5,12.97,29.13,50.5
"2016-06-17 00:48:30",1729468,5.024,85.1,7.026,0.397,25.81,111.3161,28.28,29.3,13.54,0,111.5,12.98,29.13,47.1
"2016-06-17 00:49:00",1729469,5.529,87.6,4.286,0.374,25.81,111.3169,28.28,29.31,13.75,0,111.5,12.98,29.13,49.6
"2016-06-17 00:49:30",1729470,5.43,89.6,1.875,0.59,25.88,111.3158,28.28,29.31,13.51,0,111.5,12.98,29.13,51.6
"2016-06-17 00:50:00",1729471,4.681,81.7,3.925,0.3,25.85,111.3113,28.27,29.32,13.97,0,111.5,12.98,29.12,43.7
"2016-06-17 00:50:30",1729472,4.473,89.8,3.899,0.335,25.87,111.3093,28.26,29.32,14.08,0,111.5,12.98,29.11,51.8
"2016-06-17 00:51:00",1729473,4.731,90.1,2.013,0.151,25.81,111.3096,28.26,29.3,13.9,0,111.5,12.98,29.11,52.1
"2016-06-17 00:51:30",1729474,4.662,99.4,8.59,0.244,25.77,111.3093,28.26,29.3,13.69,0,111.5,12.98,29.11,61.4
"2016-06-17 00:52:00",1729475,4.089,98.8,2.994,0.183,25.72,111.3093,28.26,29.31,14.03,0,111.5,12.98,29.11,60.8
"2016-06-17 00:52:30",1729476,4.581,100.1,1.849,0.56,25.8,111.3093,28.26,29.32,14.11,0,111.5,12.98,29.11,62.1
"2016-06-17 00:53:00",1729477,5.637,96.9,4.02,0.279,25.89,111.3093,28.26,29.3,13.59,0,111.5,12.98,29.11,58.9
"2016-06-17 00:53:30",1729478,5.153,95.1,1.526,0.097,25.9,111.3093,28.26,29.29,12.98,0,111.5,12.98,29.11,57.1
"2016-06-17 00:54:00",1729479,5.088,95.7,1,0.084,25.87,111.3006,28.24,29.29,12.83,0,111.5,12.98,29.09,57.7
"2016-06-17 00:54:30",1729480,5.355,94,1.367,0.252,25.94,111.286,28.2,29.27,12.75,0,111.5,12.98,29.05,56.0
"2016-06-17 00:55:00",1729481,5.396,94.8,1.322,0.125,25.95,111.2815,28.19,29.28,12.43,0,111.4,12.98,29.04,56.8
"2016-06-17 00:55:30",1729482,5.747,91.9,1.296,0.163,25.92,111.2757,28.17,29.26,12.55,0,111.5,12.98,29.02,53.9
"2016-06-17 00:56:00",1729483,5.397,95.4,2.147,0.17,25.95,111.2757,28.17,29.24,12.45,0,111.5,12.98,29.02,57.4
"2016-06-17 00:56:30",1729484,5.13,97.7,1.928,0.165,25.91,111.2757,28.17,29.25,12.04,0,111.5,12.98,29.02,59.7
"2016-06-17 00:57:00",1729485,5.17,92.7,2.14,0.152,25.91,111.2757,28.17,29.23,11.84,0,111.5,12.98,29.02,54.7
"2016-06-17 00:57:30",1729486,5.269,96.8,2.821,0.217,25.93,111.2757,28.17,29.25,11.98,0,111.5,12.98,29.02,58.8
"2016-06-17 00:58:00",1729487,5.281,96.9,1.304,0.122,25.89,111.276,28.17,29.23,11.91,0,111.4,12.98,29.02,58.9
"2016-06-17 00:58:30",1729488,5.288,98,1.462,0.09,25.91,111.2763,28.18,29.23,11.9,0,111.5,12.98,29.03,60.0
"2016-06-17 00:59:00",1729489,5.251,99.1,0.911,0.128,25.92,111.2758,28.17,29.22,11.7,0,111.4,12.98,29.02,61.1
"2016-06-17 00:59:30",1729490,5.506,97.9,1.394,0.186,25.92,111.2737,28.17,29.21,11.74,0,111.5,12.98,29.02,59.9
"2016-06-17 01:00:00",1729491,5.761,95.8,1.066,0.14,25.9,111.2708,28.16,29.21,11.96,0,111.4,12.97,29.01,57.8
"2016-06-17 01:00:30",1729492,5.59,95.6,2.038,0.19,25.94,111.2674,28.15,29.21,11.85,0,111.4,12.98,29.00,57.6
"2016-06-17 01:01:00",1729493,5.292,97.5,1.604,0.22,25.94,111.2676,28.15,29.19,12.03,0,111.5,12.98,29.00,59.5
"2016-06-17 01:01:30",1729494,5.538,94.4,1.401,0.153,25.96,111.2641,28.14,29.2,12.01,0,111.4,12.97,28.99,56.4
"2016-06-17 01:02:00",1729495,5.791,97.3,2.07,0.242,25.98,111.2661,28.15,29.19,12.02,0,111.4,12.97,29.00,59.3
"2016-06-17 01:02:30",1729496,5.53,99.1,1.215,0.203,25.99,111.2688,28.16,29.19,11.9,0,111.4,12.97,29.01,61.1
"2016-06-17 01:03:00",1729497,5.578,95.8,1.765,0.173,25.97,111.2689,28.16,29.17,11.9,0,111.4,12.97,29.01,57.8
"2016-06-17 01:03:30",1729498,5.534,96.1,1.129,0.145,25.99,111.27,28.16,29.18,11.87,0,111.4,12.97,29.01,58.1
"2016-06-17 01:04:00",1729499,5.343,97.7,1.029,0.218,25.99,111.2696,28.16,29.19,11.82,0,111.4,12.97,29.01,59.7
"2016-06-17 01:04:30",1729500,5.329,99.1,2.712,0.206,25.99,111.2706,28.16,29.18,11.77,0,111.4,12.97,29.01,61.1
"2016-06-17 01:05:00",1729501,5.155,97.8,0.928,0.135,25.96,111.2684,28.16,29.17,11.8,0,111.4,12.97,29.01,59.8
"2016-06-17 01:05:30",1729502,4.915,101.3,2.491,0.162,25.97,111.2712,28.16,29.17,11.68,0,111.4,12.98,29.01,63.3
"2016-06-17 01:06:00",1729503,4.792,97.9,1.207,0.109,25.97,111.27,28.16,29.17,11.58,0,111.4,12.98,29.01,59.9
"2016-06-17 01:06:30",1729504,5.051,99.1,1.268,0.162,26.01,111.2707,28.16,29.17,11.45,0,111.4,12.98,29.01,61.1
"2016-06-17 01:07:00",1729505,5.227,98.7,0.66,0.103,25.98,111.2707,28.16,29.17,11.36,0,111.4,12.98,29.01,60.7
"2016-06-17 01:07:30",1729506,5.329,98.4,1.527,0.124,25.98,111.2701,28.16,29.16,11.25,0,111.4,12.98,29.01,60.4
"2016-06-17 01:08:00",1729507,5.423,100.4,0.574,0.098,25.99,111.2701,28.16,29.16,11.22,0,111.4,12.98,29.01,62.4
"2016-06-17 01:08:30",1729508,5.354,99.6,0.645,0.16,26,111.2701,28.16,29.16,11.22,0,111.4,12.98,29.01,61.6
"2016-06-17 01:09:00",1729509,5.431,99.9,0.59,0.13,26.01,111.2704,28.16,29.15,11.21,0,111.4,12.98,29.01,61.9
"2016-06-17 01:09:30",1729510,5.348,99.5,1.491,0.207,26.03,111.2704,28.16,29.17,11.2,0,111.4,12.98,29.01,61.5
"2016-06-17 01:10:00",1729511,5.501,99.4,1.163,0.119,26,111.2701,28.16,29.15,11.15,0,111.4,12.98,29.01,61.4
"2016-06-17 01:10:30",1729512,5.45,101.1,1.15,0.089,26.01,111.271,28.16,29.16,11.18,0,111.4,12.98,29.01,63.1
"2016-06-17 01:11:00",1729513,5.323,104.6,1.246,0.292,26,111.2704,28.16,29.16,11.12,0,111.4,12.98,29.01,66.6
"2016-06-17 01:11:30",1729514,5.066,102,1.41,0.126,26.07,111.2718,28.16,29.17,11,0,111.4,12.98,29.01,64.0
"2016-06-17 01:12:00",1729515,5.013,100.9,1.109,0.082,25.98,111.2731,28.17,29.16,10.92,0,111.4,12.98,29.02,62.9
"2016-06-17 01:12:30",1729516,4.888,101.7,1.388,0.091,25.97,111.2745,28.17,29.15,10.94,0,111.4,12.98,29.02,63.7
"2016-06-17 01:13:00",1729517,4.857,104.4,1.115,0.107,25.99,111.2765,28.18,29.16,10.92,0,111.4,12.98,29.03,66.4
"2016-06-17 01:13:30",1729518,4.793,105.5,1.529,0.14,26,111.2793,28.18,29.17,10.85,0,111.4,12.98,29.03,67.5
"2016-06-17 01:14:00",1729519,5.16,106.7,1.251,0.156,25.95,111.2813,28.19,29.18,10.86,0,111.4,12.98,29.04,68.7
"2016-06-17 01:14:30",1729520,4.757,109,1.377,0.09,25.96,111.2826,28.19,29.18,10.82,0,111.4,12.98,29.04,71.0
"2016-06-17 01:15:00",1729521,4.615,109.4,1.5,0.076,26.01,111.2832,28.19,29.16,10.8,0,111.4,12.98,29.04,71.4
"2016-06-17 01:15:30",1729522,4.588,106.2,0.69,0.048,26.17,111.2838,28.19,29.18,10.71,0,111.4,12.98,29.05,68.2
"2016-06-17 01:16:00",1729523,4.737,106.2,1.071,0.085,25.99,111.2864,28.2,29.18,10.77,0,111.4,12.98,29.05,68.2
"2016-06-17 01:16:30",1729524,4.596,101.7,1.362,0.132,25.99,111.2873,28.2,29.19,10.88,0,111.4,12.98,29.05,63.7
"2016-06-17 01:17:00",1729525,4.701,101,2.604,0.216,25.93,111.2904,28.21,29.19,10.9,0,111.4,12.98,29.06,63.0
"2016-06-17 01:17:30",1729526,4.472,106.8,1.594,0.076,26,111.295,28.22,29.19,10.95,0,111.4,12.98,29.07,68.8
"2016-06-17 01:18:00",1729527,4.589,106.3,1.804,0.174,25.98,111.2977,28.23,29.2,10.92,0,111.4,12.97,29.08,68.3
"2016-06-17 01:18:30",1729528,4.716,106.5,1.042,0.06,26.04,111.2996,28.24,29.2,10.57,0,111.4,12.98,29.09,68.5
"2016-06-17 01:19:00",1729529,4.706,105.8,0.703,0.065,26.1,111.3013,28.24,29.21,10.51,0,111.4,12.97,29.09,67.8
"2016-06-17 01:19:30",1729530,4.761,105.7,1.061,0.078,26.11,111.3035,28.25,29.2,10.34,0,111.4,12.97,29.10,67.7
"2016-06-17 01:20:00",1729531,4.511,104.9,1.19,0.067,26.14,111.3044,28.25,29.2,10.29,0,111.4,12.97,29.10,66.9
"2016-06-17 01:20:30",1729532,4.461,103.3,1.614,0.113,26.06,111.3078,28.26,29.21,10.27,0,111.4,12.97,29.11,65.3
"2016-06-17 01:21:00",1729533,4.514,104.6,0.9,0.059,26.18,111.3089,28.26,29.21,10.18,0,111.4,12.98,29.11,66.6
"2016-06-17 01:21:30",1729534,4.5,103.3,0.719,0.042,26.06,111.3112,28.27,29.23,10.07,0,111.4,12.97,29.12,65.3
"2016-06-17 01:22:00",1729535,4.558,102.5,0.85,0.052,26.04,111.3123,28.27,29.21,10.07,0,111.4,12.98,29.12,64.5
"2016-06-17 01:22:30",1729536,4.508,103.3,0.646,0.048,26.07,111.3129,28.27,29.22,10.02,0,111.4,12.98,29.12,65.3
"2016-06-17 01:23:00",1729537,4.501,103.7,0.763,0.061,26.08,111.3131,28.27,29.21,9.99,0,111.4,12.98,29.12,65.7
"2016-06-17 01:23:30",1729538,4.802,103.2,1.554,0.101,26.06,111.3131,28.27,29.22,10.05,0,111.4,12.98,29.12,65.2
"2016-06-17 01:24:00",1729539,4.79,102.3,1.558,0.085,26.05,111.3131,28.27,29.23,10.04,0,111.4,12.98,29.12,64.3
"2016-06-17 01:24:30",1729540,4.647,100.9,1.006,0.078,26.08,111.3131,28.27,29.24,10.24,0,111.4,12.98,29.12,62.9
"2016-06-17 01:25:00",1729541,4.689,97.7,1.294,0.215,26.11,111.3131,28.27,29.24,10.37,0,111.4,12.98,29.12,59.7
"2016-06-17 01:25:30",1729542,4.786,97.8,0.868,0.08,26.19,111.3131,28.27,29.24,10.01,0,111.4,12.98,29.12,59.8
"2016-06-17 01:26:00",1729543,4.801,97.1,2.236,0.091,26.18,111.3131,28.27,29.23,10.08,0,111.4,12.98,29.12,59.1
"2016-06-17 01:26:30",1729544,4.985,93.7,1.252,0.129,26.19,111.3131,28.27,29.24,10.19,0,111.4,12.98,29.12,55.7
"2016-06-17 01:27:00",1729545,4.91,95.7,1.505,0.087,26.15,111.3131,28.27,29.24,10.21,0,111.4,12.98,29.12,57.7
"2016-06-17 01:27:30",1729546,4.809,94.1,2.917,0.116,26.18,111.3131,28.27,29.24,10.33,0,111.4,12.98,29.12,56.1
"2016-06-17 01:28:00",1729547,4.736,97.2,3.461,0.18,26.18,111.3131,28.27,29.25,10.24,0,111.4,12.98,29.12,59.2
"2016-06-17 01:28:30",1729548,4.147,98.3,3.557,0.082,26.15,111.3131,28.27,29.24,10.07,0,111.4,12.99,29.12,60.3
"2016-06-17 01:29:00",1729549,4.242,93.7,0.832,0.04,26.16,111.312,28.27,29.23,10.57,0,111.5,12.99,29.12,55.7
"2016-06-17 01:29:30",1729550,4.194,90.6,1.243,0.074,26.16,111.3117,28.27,29.24,10.83,0,111.5,12.98,29.12,52.6
"2016-06-17 01:30:00",1729551,4.463,87,5.149,0.29,26.14,111.3095,28.26,29.24,10.55,0,111.4,12.99,29.11,49.0
"2016-06-17 01:30:30",1729552,4.585,83.4,1.374,0.181,26.03,111.3075,28.26,29.23,11.34,0,111.4,12.99,29.11,45.4
"2016-06-17 01:31:00",1729553,4.665,83.1,4.066,0.211,26.12,111.3019,28.24,29.24,11.43,0,111.4,12.99,29.09,45.1
"2016-06-17 01:31:30",1729554,4.799,85.1,1.569,0.158,26.17,111.2938,28.22,29.25,11.18,0,111.5,12.99,29.07,47.1
"2016-06-17 01:32:00",1729555,4.786,85.5,1.584,0.142,26.18,111.2896,28.21,29.24,11.11,0,111.4,12.99,29.06,47.5
"2016-06-17 01:32:30",1729556,4.501,88.9,0.828,0.132,26.25,111.287,28.2,29.24,10.98,0,111.4,12.99,29.05,50.9
"2016-06-17 01:33:00",1729557,4.407,86.6,2.609,0.109,26.24,111.282,28.19,29.23,10.96,0,111.4,12.99,29.04,48.6
"2016-06-17 01:33:30",1729558,4.452,86,3.021,0.096,26.23,111.2795,28.18,29.22,10.82,0,111.4,12.99,29.03,48.0
"2016-06-17 01:34:00",1729559,4.44,87.4,2.193,0.233,26.27,111.2795,28.18,29.23,10.76,0,111.4,12.99,29.03,49.4
"2016-06-17 01:34:30",1729560,4.685,85.3,2.677,0.11,26.23,111.2795,28.18,29.22,10.9,0,111.5,12.99,29.03,47.3
"2016-06-17 01:35:00",1729561,4.383,87.7,0.91,0.084,26.29,111.2795,28.18,29.21,10.68,0,111.4,12.98,29.03,49.7
"2016-06-17 01:35:30",1729562,4.308,87.4,0.804,0.072,26.31,111.2783,28.18,29.19,10.7,0,111.4,12.98,29.03,49.4
"2016-06-17 01:36:00",1729563,4.353,87.2,0.723,0.105,26.31,111.2761,28.18,29.19,10.72,0,111.4,12.98,29.03,49.2
"2016-06-17 01:36:30",1729564,4.373,88.3,1.431,0.203,26.31,111.2666,28.15,29.19,10.74,0,111.4,12.98,29.00,50.3
"2016-06-17 01:37:00",1729565,4.451,86.5,0.967,0.08,26.29,111.2567,28.13,29.18,10.72,0,111.4,12.98,28.98,48.5
"2016-06-17 01:37:30",1729566,4.562,87.5,1.172,0.137,26.33,111.2539,28.12,29.18,10.66,0,111.4,12.98,28.97,49.5
"2016-06-17 01:38:00",1729567,4.688,85.7,0.977,0.128,26.27,111.2494,28.11,29.17,10.62,0,111.4,12.98,28.96,47.7
"2016-06-17 01:38:30",1729568,4.717,85,1.044,0.122,26.28,111.2463,28.1,29.17,10.58,0,111.4,12.98,28.95,47.0
"2016-06-17 01:39:00",1729569,4.402,85.6,1.433,0.134,26.29,111.2458,28.1,29.16,10.66,0,111.4,12.98,28.95,47.6
"2016-06-17 01:39:30",1729570,4.415,86.4,1.497,0.115,26.27,111.2458,28.1,29.16,10.75,0,111.4,12.98,28.95,48.4
"2016-06-17 01:40:00",1729571,4.579,88.5,2.445,0.235,26.36,111.2458,28.1,29.16,10.77,0,111.4,12.98,28.95,50.5
"2016-06-17 01:40:30",1729572,4.584,90.8,1.806,0.084,26.34,111.2458,28.1,29.15,10.58,0,111.4,12.98,28.95,52.8
"2016-06-17 01:41:00",1729573,4.674,88.1,1.757,0.119,26.34,111.2458,28.1,29.13,10.78,0,111.4,12.98,28.95,50.1
"2016-06-17 01:41:30",1729574,4.523,91.1,2.166,0.198,26.32,111.2455,28.1,29.13,10.79,0,111.4,12.99,28.95,53.1
"2016-06-17 01:42:00",1729575,4.485,89.8,0.961,0.155,26.4,111.2419,28.09,29.13,10.6,0,111.4,12.99,28.94,51.8
"2016-06-17 01:42:30",1729576,4.275,92.5,1.722,0.135,26.36,111.2296,28.06,29.12,10.44,0,111.4,12.99,28.91,54.5
"2016-06-17 01:43:00",1729577,4.436,95,1.929,0.155,26.35,111.2223,28.04,29.12,10.21,0,111.4,12.99,28.89,57.0
"2016-06-17 01:43:30",1729578,4.437,92.3,1.717,0.083,26.39,111.2226,28.04,29.11,10.02,0,111.4,12.99,28.89,54.3
"2016-06-17 01:44:00",1729579,4.39,92.2,0.951,0.081,26.35,111.222,28.04,29.09,10.22,0,111.4,12.99,28.89,54.2
"2016-06-17 01:44:30",1729580,4.458,90.7,1.876,0.189,26.39,111.218,28.03,29.09,10.23,0,111.4,12.99,28.88,52.7
"2016-06-17 01:45:00",1729581,4.639,93.4,2.762,0.134,26.36,111.2227,28.04,29.09,10.28,0,111.4,12.99,28.89,55.4
"2016-06-17 01:45:30",1729582,4.508,90.9,1.27,0.104,26.37,111.2265,28.05,29.09,10.4,0,111.4,12.99,28.90,52.9
"2016-06-17 01:46:00",1729583,4.425,91.6,1.097,0.113,26.37,111.2302,28.06,29.08,10.45,0,111.4,12.99,28.91,53.6
"2016-06-17 01:46:30",1729584,4.599,89.3,1.131,0.207,26.36,111.2333,28.07,29.08,10.61,0,111.4,12.99,28.91,51.3
"2016-06-17 01:47:00",1729585,4.583,86.7,1.598,0.094,26.38,111.2352,28.07,29.07,10.7,0,111.4,12.99,28.92,48.7
"2016-06-17 01:47:30",1729586,4.646,87.4,1.335,0.15,26.38,111.2368,28.07,29.07,10.71,0,111.4,12.99,28.92,49.4
"2016-06-17 01:48:00",1729587,4.945,87.7,1.119,0.1,26.41,111.2349,28.07,29.06,10.7,0,111.4,12.99,28.92,49.7